This demonstration page uses our WeatherBlox Daily Observations layout. Learn more.

Left ArrowRight Arrow

36.17497, -115.13722

Hourly Observations for October 30, 2019

Temp ( °F °C ) Dew Point ( °F °C ) Humidity (%) Winds ( mph kmh ) Pressure ( in mb ) Visibility ( mi km ) Precip ( " mm )
12:53 am 00:53 Clear 41 5 -2 -18.9 16 16 NE 13 20 30.37 1028 10 16.0934 N/A
1:53 am 01:53 Clear 41 5 N/A 18 18 NNE 10 17 30.41 1030 10 16.0934 N/A
2:53 am 02:53 Clear 41 5 -1 -18.3 17 17 N 13 20 30.42 1030 10 16.0934 N/A
3:53 am 03:53 Clear 39 3.9 -1 -18.3 18 18 NE 8 13 30.43 1031 10 16.0934 N/A
4:53 am 04:53 Clear 37 2.8 1 -17.2 22 22 NNW 14 22 30.44 1031 10 16.0934 N/A
5:53 am 05:53 Clear 36 2.2 1 -17.2 22 22 NNW 13 20 30.46 1032 10 16.0934 N/A
6:53 am 06:53 Clear 35 1.7 1 -17.2 23 23 NNW 12 19 30.48 1032 10 16.0934 N/A
7:53 am 07:53 Sunny 36 2.2 1 -17.2 22 22 NNW 16 26 30.5 1033 10 16.0934 N/A
8:53 am 08:53 Sunny 39 3.9 1 -17.2 20 20 NNW 8 13 30.54 1034 10 16.0934 N/A
9:53 am 09:53 Sunny 41 5 N/A 18 18 N 8 13 30.54 1034 10 16.0934 N/A
10:53 am 10:53 Sunny 43 6.1 -2 -18.9 15 15 N 5 7 30.55 1035 10 16.0934 N/A
11:53 am 11:53 Sunny 45 7.2 -2 -18.9 14 14 VRB 5 7 30.53 1034 10 16.0934 N/A
12:53 pm 12:53 Sunny 47 8.3 -2 -18.9 13 13 N N/A 30.5 1033 10 16.0934 N/A
1:53 pm 13:53 Sunny 48 8.9 -2 -18.9 12 12 N N/A 30.47 1032 10 16.0934 N/A
2:53 pm 14:53 Sunny 51 10.6 -4 -20 10 10 NE 3 6 30.45 1031 10 16.0934 N/A
3:53 pm 15:53 Sunny 53 11.7 -6 -21.1 8 8 NNE 7 11 30.45 1031 10 16.0934 N/A
4:53 pm 16:53 Sunny 52 11.1 -5 -20.6 9 9 NNW 6 9 30.45 1031 10 16.0934 N/A
5:53 pm 17:53 Clear 51 10.6 -4 -20 10 10 WNW 5 7 30.45 1031 10 16.0934 N/A
6:53 pm 18:53 Clear 50 10 -1 -18.3 12 12 N N/A 30.46 1031 10 16.0934 N/A
7:53 pm 19:53 Clear 46 7.8 5 -15 18 18 W 6 9 30.46 1032 10 16.0934 N/A
8:53 pm 20:53 Clear 44 6.7 7 -13.9 22 22 NW 6 9 30.47 1032 10 16.0934 N/A
9:53 pm 21:53 Clear 41 5 5 -15 22 22 NW 7 11 30.47 1032 10 16.0934 N/A
10:53 pm 22:53 Clear 41 5 6 -14.4 23 23 N N/A 30.48 1032 10 16.0934 N/A
11:53 pm 23:53 Clear 40 4.4 7 -13.9 25 25 WNW 3 6 30.48 1032 10 16.0934 N/A

Powered by AerisWeather